7 * 24
多渠道服务支持
STARLINK-35486是美国SpaceX公司星链(Starlink)星座中的一颗低轨互联网通信卫星,于2025年10月29日发射入轨。它属于星链大规模组网的卫星之一,采用平板式设计,配备太阳能电池阵与霍尔推进系统,依托Ku/Ka波段通信技术,为全球覆盖区域提供高速宽带互联网服务,尤其服务偏远、网络基础设施匮乏地区。星链卫星具备自主避撞能力,寿命末期会主动离轨再入大气层烧毁,减少空间碎片影响,单颗卫星设计使用寿命约5-7年,是SpaceX构建全球低轨通信星座的组成单元。
美国
(US)
| 数据来源 | 国际轨道数据 |
| 星历时间: | 2026-05-25T03:30:17+0800 15小时前 查看轨道信息 |
| 半长轴: | 6848.802km |
| 偏心率: | 0.000083 |
| 轨道倾角: | 53.160° |
| 近地点辐角 | 40.131° |
| 升交点赤经 | 290.142° |
| 平近点角 | 319.975° |
| 近地点: | 470.096km |
| 远地点: | 471.234km |
| 周期: | 94.012分钟 |
| 每日圈数: | 15.317254 |